Weather in La Rochelle

France     46°09′37″N   1°08′30″W
temp.,
°C
wind,
m/s
gust,
m/s
humid.,
%
clouds,
%
prec.,
mm/h
press.,
hPa
HPBL,
m
14 june, mon
mon1423:00+23ene57690 0.0 102072
02:00+20ene4779100 0.0 102077
05:00+18ene5786100 0.0 1019114
08:00+19ne468069 0.0 1020132
11:00+23nne346386 0.0 1020170
14:00+24w55636 0.0 1020363
17:00+23wnw686861 0.0 1018412
20:00+25nw68560 0.0 1017316
15 june, tue
tue1523:00+22nnw59720 0.0 101995
02:00+20nne610750 0.0 1019149
05:00+18nne56790 0.0 1019133
08:00+18ne45810 0.0 1019139
11:00+22nw11710 0.0 1019158
14:00+23w54685 0.0 1018401
17:00+21w66760 0.0 1017171
20:00+22wnw67680 0.0 1015136
16 june, wed
wed1623:00+21nw58690 0.0 101572
02:00+20nne22772 0.0 101422
05:00+20ese44771 0.0 101346
08:00+20ese34766 0.0 101264
11:00+24se23635 0.0 1011154
14:00+23sw567178 0.0 1010186
17:00+21w237898 0.2 100965
20:00+22sw4477100 1.4 100879
17 june, thu
thu1723:00+20s2487100 2.7 100875
02:00+20sse3492100 3.3 100970
05:00+20sse579296 0.0 1008158
08:00+20ssw61091100 0.0 1009432
11:00+20ssw689092 0.1 1010394
14:00+20sw6784100 0.1 1011503
17:00+19wsw6782100 0.0 1011595
20:00+19w6684100 0.0 1011620
18 june, fri
fri1823:00+18wnw4586100 0.1 1013468
02:00+18nw6684100 0.1 1013562
05:00+16nnw448932 0.0 1014262
08:00+16nnw348863 0.0 1014233
11:00+17w2179100 0.0 1014361
14:00+18wsw4277100 0.0 1014296
17:00+19w327355 0.0 1011197
20:00+21nw3374100 0.2 1010109